Regional Weather Roundup
Issued by NWS

Home | Current Version | Previous Version | Graphics & Text | Print | Product List | Glossary On
Versions: 1 2 3 4 5 6 7 8 9 10 11 12 13 14 15 16 17 18 19 20 21 22 23 24 25 26 27 28 29 30 31 32 33 34 35 36 37 38 39 40 41 42 43 44 45 46 47 48 49 50
208
ASUS45 KCYS 222210
RWRWY

WYOMING REGIONAL WEATHER ROUNDUP
NATIONAL WEATHER SERVICE CHEYENNE WY
400 PM MDT SAT APR 22 2017

NOTE:  "FAIR" INDICATES FEW OR NO CLOUDS BELOW 12,000 FEET
WITH NO SIGNIFICANT WEATHER AND/OR OBSTRUCTIONS TO VISIBILITY.

WYZ001-222300-
YELLOWSTONE NATIONAL PARK

CITY           SKY/WX    TMP DP  RH WIND       PRES   REMARKS
LK YELLOWSTONE   N/A     44  21  40 VRB5      30.17F
W YELLOWSTONE  NOT AVBL

$$
WYZ002>013-054>058-071-098>099-222300-
NORTHERN WYOMING

CITY           SKY/WX    TMP DP  RH WIND       PRES   REMARKS
JACKSON        MOSUNNY   54  25  32 S10       30.14F
CODY           FAIR      55  37  50 S16       30.07F
GREYBULL       FAIR      56  35  45 SE16      30.10F
WORLAND        PTSUNNY   55  40  56 S12       30.11F
SHERIDAN       FAIR      58  40  51 SE20G25   30.06F
BUFFALO        FAIR      56  34  43 S22       30.09F
GILLETTE       FAIR      54  38  54 S14       30.12F
HULETT         MOCLDY    59  36  41 S14       30.13F
NEWCASTLE      FAIR      59  32  36 SW13G24   30.17F

$$
WYZ014>020-022>026-101>103-222300-
CENTRAL WYOMING

CITY           SKY/WX    TMP DP  RH WIND       PRES   REMARKS
BIG PINEY      FAIR      51  17  26 SW9       30.19F
PINEDALE       FAIR      50  21  32 SE9       30.21F
DUBOIS         FAIR      50  21  32 W16G22    30.12F
LANDER         FAIR      57  29  34 NW6       30.09F
RIVERTON       FAIR      58  30  34 S15G23    30.11F
CASPER         FAIR      56  30  37 S17G24    30.15F
DOUGLAS        FAIR      58  34  40 W8        30.18F

$$
WYZ021-027>030-104>119-222300-
SOUTHERN WYOMING

CITY           SKY/WX    TMP DP  RH WIND       PRES   REMARKS
EVANSTON       FAIR      54  24  31 MISG      30.17F
KEMMERER         N/A     50  18  27 SE9       30.19F
FORT BRIDGER   FAIR      55  20  25 CALM      30.20S
ROCK SPRINGS   FAIR      55  14  19 S10G21    30.18F
DIXON            N/A     55  24  30 NE6       30.20F
RAWLINS        FAIR      54  19  25 VRB3      30.18F
SARATOGA       FAIR      54  23  30 CALM      30.20F
LARAMIE        FAIR      48  22  35 SE12G20   30.21F
CHEYENNE       FAIR      49  28  44 S15       30.23F
TORRINGTON     FAIR      61  30  31 S12       30.17F
PINE BLUFFS    FAIR      54  30  40 S8G16     30.24F

$$




USA.gov is the U.S. government's official web portal to all federal, state and local government web resources and services.